Tracking 28908 objects as of 21-May-2024
HD Live streaming from Space Station
objects crossing your sky now

IRIDIUM 178

Track IRIDIUM 178 now!
10-day predictions
IRIDIUM 178 is classified as:


NORAD ID: 56729
Int'l Code: 2023-068V
Perigee: 633.9 km
Apogee: 637.7 km
Inclination: 86.6 °
Period: 97.3 minutes
Semi major axis: 7006 km
RCS: Unknown
Launch date: May 20, 2023
Source: United States (US)
Launch site: AIR FORCE WESTERN TEST RANGE (AFWTR)
Your satellite tracking list
Your tracking list is empty




NASA's NSSDC Master Catalog

Two Line Element Set (TLE):
1 56729U 23068V   24141.83566283  .00003406  00000-0  44487-3 0  9994
2 56729  86.5783 344.6232 0002699  76.1697 283.9825 14.80222157 54338
Source of the keplerian elements: AFSPC